Find Starlink 3931

NORAD ID: 52548 Int'l Des: 2022-051 Owner: SPXS Country: US Constellation: starlink operational
LEOCIRCULAR

Live Position

Loading 3D Globe...

About Starlink 3931

Description loading...

Upcoming Passes

Passes for default location (London). Set your location on the main map for personalized predictions.

Altitude History

Loading altitude history...

Two-Line Element Set

1 52548U 22051R 26106.28292664 -.00000031 00000-0 16159-4 0 9999
2 52548 53.2182 320.3575 0001422 86.8350 273.2805 15.08839844217121
Epoch: Apr 16, 2026 • Age: 5 hours

Current Status

Altitude 540.5 km
Velocity 7.60 km/s
Sub-Earth Point 27.58°N, 88.87°E
Launch Date May 13, 2022
Age 3.9 years
Type internet

Technical Details

Classification Payload
Mass 297.00 kg
Dry Mass 275.00 kg
Total Mass 297.00 kg
Length 0.20 m
Diameter 2.80 m
Span 9.00 m
Shape Box + pan
Manufacturer SPXS
Bus Type Starlink
Phase Status In Orbit
Owner/State SPXS/US

Most Searched